Location: ???????
(55.7027°N, 37.3832°E)
Time: 07:53:24
(UTC+00:00)

Cosmos 2237 Rocket - Pass Details

Date: 14 April 2026
Orbit: 833 x 850 km, 71.0° (Epoch: 9 May)

Event Time Altitude Azimuth Distance (km) Brightness Sun altitude
Rises 18:14:44 0° 188° (S) 3,394 5.0 -13.1°
Reaches altitude 10° 18:17:15 10° 182° (S) 2,465 4.3 -13.4°
Maximum altitude 18:22:35 44° 112° (ESE) 1,164 2.5 -13.9°
Drops below altitude 10° 18:27:57 10° 42° (NE) 2,488 4.7 -14.5°
Sets 18:30:31 0° 36° (NE) 3,428 5.5 -14.7°
